[[{"header":{"parameterUnit":"m.s-1","parameterCategory":1,"la1":30.2991,"la2":30.254,"lo1":-89.0895,"lo2":-89.0444,"dy":0.0017,"dx":0.0017,"nx":28,"ny":28,"refTime":"2024-07-30T09:00:00:Z","depth":0,"parameterNumber":2,"parameterNumberName":"U-component_of_WINDS"},"data":[0,0,0,0,0,0,0,0,0,0,0,0,0,0,0,0,0,0,0,0,0,0,0,0,0,0,0,0,0,0,0,0,0,0,0,0,0,0,0,0,0,0,0,0,0,0,0,0,0,0,0,0,0,0,0,0,0,0,1.6673,1.6673,0,1.6704,1.6704,1.6704,1.671,1.671,1.671,1.671,1.6741,1.6742,1.6743,0,0,0,0,0,0,0,0,0,0,0,0,0,1.6622,1.6623,1.6673,1.6673,1.6674,1.6704,1.6704,1.6704,1.671,1.671,1.671,1.671,1.6741,1.6742,1.6743,0,0,0,0,0,0,0,0,0,0,0,0,0,1.6647,1.6623,1.6673,1.668,1.6681,1.6703,1.6704,1.6704,1.671,1.671,1.671,1.6709,1.674,1.6742,1.6743,1.676,0,0,1.6748,1.6749,0,0,0,0,0,0,0,0,1.6646,1.6649,1.6679,1.668,1.6681,1.6703,1.6697,1.6723,1.6711,1.6699,1.671,1.6709,1.6729,1.6731,1.6738,1.6762,1.6763,1.6748,1.6749,1.675,1.675,0,0,0,0,0,0,0,1.6644,1.6648,1.6685,1.6679,1.6681,1.6683,1.6686,1.6702,1.6716,1.67,1.6701,1.6704,1.6729,1.6736,1.6738,1.6763,1.6748,1.675,1.6751,1.6751,1.6805,1.6805,0,0,0,0,0,0,1.6641,1.6646,1.6684,1.6686,1.6662,1.6684,1.6688,1.6696,1.6715,1.6718,1.6705,1.6705,1.6733,1.6736,1.6739,1.6761,1.675,1.6751,1.6752,1.6805,1.6805,1.6806,0,0,0,0,0,0,1.664,1.6644,1.6683,1.6666,1.6672,1.6685,1.6695,1.6697,1.6704,1.6719,1.6721,1.6709,1.6733,1.6737,1.6755,1.6763,1.6752,1.6753,1.6804,1.6805,1.6805,1.6805,0,0,0,0,0,0,1.6638,1.6644,1.665,1.6666,1.6672,1.6698,1.6695,1.6698,1.6707,1.6707,1.6724,1.6726,1.6733,1.6753,1.6757,1.6765,1.6755,1.6803,1.6804,1.6805,1.6804,1.6806,1.6807,0,0,0,0,0,1.6636,1.6648,1.665,1.6654,1.668,1.6698,1.6702,1.671,1.6707,1.6714,1.6724,1.6726,1.6761,1.6755,1.6759,1.6767,1.6803,1.6804,1.6805,1.6804,1.6805,1.6807,0,0,0,0,0,0,1.6631,1.665,1.6652,1.667,1.6682,1.6699,1.6707,1.6711,1.6724,1.6724,1.6733,1.6737,1.6755,1.6763,1.6756,1.6786,1.6782,1.6784,1.678,1.6781,1.6782,1.678,1.6756,0,0,0,0,0,1.6632,1.6645,1.6661,1.6675,1.6681,1.6693,1.6701,1.6707,1.672,1.6725,1.6736,1.675,1.6764,1.6773,1.6787,1.6806,1.681,1.6814,1.6815,1.6816,1.6818,1.683,1.6832,1.6809,1.6809,1.6809,0,0,1.6633,1.6646,1.6653,1.6674,1.6684,1.6698,1.6697,1.6711,1.6722,1.6727,1.6745,1.6754,1.677,1.6789,1.6798,1.6796,1.6825,1.6818,1.6818,1.6819,1.6831,1.6833,1.6835,1.681,1.681,1.681,0,0,1.6644,1.6654,1.6667,1.6678,1.6694,1.6702,1.6706,1.6723,1.6729,1.6747,1.6752,1.6765,1.6789,1.6801,1.681,1.6827,1.683,1.6831,1.6837,1.6849,1.685,1.6852,1.6859,1.6861,1.6833,1.6833,1.6833,0,1.6644,1.6664,1.6673,1.6688,1.6697,1.6704,1.6718,1.6728,1.6748,1.6755,1.6753,1.6785,1.6796,1.6818,1.6823,1.6829,1.6834,1.6829,1.6849,1.6851,1.6853,1.6859,1.6862,1.6833,1.6833,1.6833,1.6833,0,1.6664,1.6678,1.6687,1.6707,1.6717,1.6731,1.6744,1.6754,1.6759,1.6768,1.6788,1.6801,1.6819,1.6825,1.6829,1.6849,1.6847,1.6847,1.6844,1.6855,1.6861,1.6864,1.6833,1.6833,1.6833,1.6833,0,0,1.6669,1.6696,1.6699,1.6708,1.6728,1.6739,1.6755,1.6772,1.6781,1.6795,1.6809,1.683,1.6831,1.6841,1.6848,1.6858,1.6872,1.6857,1.6858,1.686,1.6895,1.6895,1.6897,1.6875,1.6875,1.6876,1.6894,0,1.6682,1.6709,1.6719,1.6741,1.6755,1.6763,1.6777,1.6791,1.68,1.6814,1.6825,1.684,1.684,1.6846,1.6857,1.6868,1.688,1.6867,1.6888,1.6889,1.6883,1.6901,1.69,1.6916,1.6897,1.6897,1.6897,0,1.6699,1.6715,1.6739,1.6758,1.6764,1.6776,1.6794,1.6807,1.6824,1.683,1.6843,1.6849,1.6867,1.6863,1.6887,1.6879,1.6888,1.6896,1.6896,1.6898,1.6893,1.6903,1.6922,1.6924,1.6901,1.6901,1.6901,0,1.6702,1.6728,1.6746,1.6755,1.6777,1.6786,1.6796,1.6812,1.6823,1.6839,1.6846,1.6864,1.6874,1.6888,1.6899,1.6895,1.6923,1.692,1.6929,1.6929,1.6934,1.6934,1.6955,1.6941,1.6941,1.6941,1.6941,0,1.6715,1.6729,1.6748,1.6759,1.6776,1.6788,1.6805,1.6816,1.6831,1.6845,1.6853,1.6866,1.688,1.6896,1.6905,1.6925,1.6929,1.6935,1.6937,1.6934,1.6933,1.694,1.6939,1.6941,1.6941,1.6941,1.6941,0,1.6719,1.6732,1.6753,1.6774,1.6779,1.6791,1.6809,1.6821,1.6832,1.6849,1.6854,1.6871,1.689,1.6903,1.6927,1.6933,1.6955,1.6957,1.6949,1.695,1.6959,1.6958,1.6984,1.6989,1.6972,1.6972,1.6972,0,1.6726,1.6738,1.676,1.677,1.6781,1.6797,1.6808,1.6821,1.6833,1.6854,1.6863,1.6883,1.6899,1.6928,1.6943,1.6962,1.6965,1.6973,1.6967,1.6964,1.6965,1.6964,1.6966,1.6973,1.6973,1.6973,1.6973,0,1.6737,1.6744,1.676,1.6779,1.6792,1.6807,1.6823,1.6831,1.6847,1.686,1.6879,1.6892,1.6917,1.6937,1.6957,1.6968,1.6974,1.6975,1.6979,1.6975,1.697,1.6973,1.6951,1.6974,1.6974,1.6974,1.6974,1.6974,1.6744,1.6755,1.6773,1.6791,1.6804,1.6819,1.6831,1.6845,1.6861,1.6882,1.689,1.691,1.6929,1.6957,1.6969,1.6985,1.6985,1.6989,1.699,1.6991,1.6991,1.6968,1.6989,1.6989,1.6989,1.6989,1.6989,0,1.6755,1.6768,1.6785,1.6807,1.6821,1.6826,1.6844,1.6856,1.6874,1.689,1.6907,1.693,1.6949,1.6966,1.6987,1.6997,1.7,1.7002,1.7001,1.7004,1.699,1.6986,1.6999,1.6999,1.6999,1.6999,1.6999,1.6999,1.6763,1.6783,1.6792,1.6819,1.6831,1.6852,1.6862,1.6876,1.6889,1.6915,1.6931,1.6943,1.696,1.6982,1.7001,1.7006,1.7013,1.7014,1.7019,1.7006,1.7005,1.7003,1.6999,1.7015,1.7015,1.7031,1.7031,1.7031]},{"header":{"parameterUnit":"m.s-1","parameterCategory":1,"la1":30.2991,"la2":30.254,"lo1":-89.0895,"lo2":-89.0444,"dy":0.0017,"dx":0.0017,"nx":28,"ny":28,"refTime":"2024-07-30T09:00:00:Z","depth":0,"parameterNumber":3,"parameterNumberName":"V-component_of_WINDS"},"data":[0,0,0,0,0,0,0,0,0,0,0,0,0,0,0,0,0,0,0,0,0,0,0,0,0,0,0,0,0,0,0,0,0,0,0,0,0,0,0,0,0,0,0,0,0,0,0,0,0,0,0,0,0,0,0,0,0,0,-1.1949,-1.1949,0,-1.1933,-1.1933,-1.1933,-1.1911,-1.191,-1.191,-1.191,-1.1891,-1.1891,-1.1891,0,0,0,0,0,0,0,0,0,0,0,0,0,-1.196,-1.196,-1.1949,-1.1949,-1.1949,-1.1933,-1.1933,-1.1933,-1.1911,-1.191,-1.191,-1.1909,-1.1891,-1.1891,-1.1891,0,0,0,0,0,0,0,0,0,0,0,0,0,-1.1951,-1.196,-1.1949,-1.1936,-1.1935,-1.1933,-1.1933,-1.1932,-1.1911,-1.191,-1.191,-1.1909,-1.1891,-1.1891,-1.1891,-1.1901,0,0,-1.189,-1.189,0,0,0,0,0,0,0,0,-1.1952,-1.1951,-1.1938,-1.1937,-1.1935,-1.1923,-1.193,-1.1922,-1.1911,-1.192,-1.1909,-1.1909,-1.1902,-1.1901,-1.1899,-1.19,-1.1899,-1.189,-1.189,-1.189,-1.189,0,0,0,0,0,0,0,-1.1952,-1.1951,-1.1943,-1.1938,-1.1936,-1.1931,-1.1929,-1.1928,-1.1914,-1.1919,-1.1917,-1.1916,-1.1901,-1.19,-1.1899,-1.1899,-1.189,-1.189,-1.189,-1.189,-1.1908,-1.1909,0,0,0,0,0,0,-1.1955,-1.1952,-1.1943,-1.1942,-1.1942,-1.1931,-1.1929,-1.1928,-1.1914,-1.1912,-1.1916,-1.1915,-1.19,-1.1899,-1.1898,-1.191,-1.189,-1.189,-1.189,-1.1908,-1.1908,-1.1909,0,0,0,0,0,0,-1.1955,-1.1954,-1.1944,-1.1947,-1.1945,-1.1931,-1.193,-1.1928,-1.1926,-1.1912,-1.1909,-1.1917,-1.19,-1.1898,-1.1901,-1.1909,-1.189,-1.189,-1.1907,-1.1908,-1.1909,-1.1932,0,0,0,0,0,0,-1.1956,-1.1955,-1.1958,-1.1947,-1.1945,-1.1947,-1.1931,-1.1928,-1.1926,-1.1924,-1.1912,-1.191,-1.1899,-1.1901,-1.19,-1.1908,-1.1889,-1.1906,-1.1907,-1.1908,-1.1931,-1.1934,-1.1937,0,0,0,0,0,-1.1956,-1.1965,-1.1958,-1.1957,-1.1949,-1.1947,-1.1946,-1.1934,-1.1926,-1.193,-1.1921,-1.191,-1.1908,-1.1902,-1.1901,-1.1908,-1.1906,-1.1907,-1.1908,-1.193,-1.1933,-1.1937,0,0,0,0,0,0,-1.1976,-1.1963,-1.1956,-1.1961,-1.1956,-1.1944,-1.1948,-1.1939,-1.1935,-1.1933,-1.1918,-1.1916,-1.192,-1.1914,-1.1907,-1.1918,-1.1905,-1.1906,-1.1922,-1.1925,-1.1928,-1.193,-1.1889,0,0,0,0,0,-1.1981,-1.1982,-1.197,-1.1975,-1.1973,-1.1961,-1.196,-1.1952,-1.1945,-1.1943,-1.1934,-1.1928,-1.1926,-1.1925,-1.1923,-1.193,-1.1928,-1.1935,-1.1938,-1.194,-1.1942,-1.1947,-1.195,-1.1914,-1.1914,-1.1914,0,0,-1.1991,-1.1984,-1.1985,-1.1979,-1.1974,-1.1975,-1.1959,-1.196,-1.1961,-1.1942,-1.1945,-1.1939,-1.1931,-1.1937,-1.1938,-1.1932,-1.1951,-1.1942,-1.1944,-1.1944,-1.1949,-1.1952,-1.1955,-1.1915,-1.1914,-1.1914,0,0,-1.2011,-1.2005,-1.201,-1.2006,-1.1999,-1.1991,-1.1992,-1.1982,-1.1978,-1.198,-1.1967,-1.1967,-1.1964,-1.196,-1.1957,-1.1977,-1.1967,-1.1976,-1.1992,-1.1997,-1.2,-1.2003,-1.2011,-1.2014,-1.1978,-1.1978,-1.1978,0,-1.2024,-1.2025,-1.2013,-1.2016,-1.2014,-1.1999,-1.2004,-1.2,-1.1993,-1.1992,-1.1985,-1.1982,-1.1975,-1.198,-1.1986,-1.1983,-1.1985,-1.1978,-1.2001,-1.2003,-1.2005,-1.2013,-1.2016,-1.1979,-1.1979,-1.1979,-1.1979,0,-1.2043,-1.2044,-1.2049,-1.2043,-1.2042,-1.2046,-1.2035,-1.2035,-1.2027,-1.202,-1.2024,-1.2016,-1.2012,-1.2012,-1.2004,-1.2017,-1.2013,-1.2004,-1.1991,-1.201,-1.2018,-1.202,-1.1981,-1.1981,-1.198,-1.198,0,0,-1.2073,-1.2063,-1.2065,-1.2063,-1.2055,-1.2056,-1.2059,-1.2057,-1.2058,-1.2053,-1.2056,-1.2055,-1.2047,-1.2044,-1.2035,-1.2039,-1.2058,-1.2029,-1.2029,-1.2036,-1.2073,-1.2081,-1.2085,-1.2051,-1.2051,-1.2052,-1.2074,0,-1.2092,-1.2098,-1.2089,-1.2097,-1.2099,-1.2085,-1.2088,-1.2084,-1.2078,-1.2078,-1.2071,-1.2071,-1.206,-1.2058,-1.2062,-1.2055,-1.2065,-1.2053,-1.2054,-1.2054,-1.2057,-1.2088,-1.2096,-1.2118,-1.2077,-1.2077,-1.2077,0,-1.2114,-1.2113,-1.2122,-1.2115,-1.2115,-1.2119,-1.2117,-1.2117,-1.2112,-1.2108,-1.2105,-1.2096,-1.2099,-1.2087,-1.2092,-1.2084,-1.2084,-1.2081,-1.2081,-1.2081,-1.2068,-1.209,-1.2124,-1.2128,-1.2081,-1.2081,-1.2081,0,-1.2137,-1.2137,-1.2143,-1.2142,-1.2134,-1.2137,-1.2133,-1.2128,-1.2128,-1.2126,-1.2126,-1.2124,-1.2123,-1.2122,-1.2112,-1.2104,-1.2119,-1.2105,-1.2116,-1.2116,-1.212,-1.212,-1.2155,-1.2119,-1.2119,-1.2119,-1.2119,0,-1.216,-1.2166,-1.2154,-1.2157,-1.2165,-1.2154,-1.2161,-1.2156,-1.2152,-1.2155,-1.2142,-1.2145,-1.2132,-1.2133,-1.2125,-1.2132,-1.2131,-1.2128,-1.2126,-1.213,-1.213,-1.213,-1.2128,-1.2119,-1.2119,-1.2119,-1.2119,0,-1.2187,-1.2179,-1.2184,-1.2177,-1.2175,-1.2181,-1.2175,-1.2178,-1.2172,-1.2176,-1.2176,-1.2166,-1.2168,-1.2158,-1.2157,-1.2152,-1.2162,-1.2157,-1.2164,-1.2163,-1.2175,-1.2174,-1.2212,-1.2217,-1.2176,-1.2176,-1.2177,0,-1.2202,-1.2207,-1.2201,-1.2202,-1.22,-1.2202,-1.2202,-1.2192,-1.2193,-1.2189,-1.2193,-1.2193,-1.2193,-1.2196,-1.2189,-1.2189,-1.2184,-1.2197,-1.2184,-1.2188,-1.2186,-1.2186,-1.2187,-1.22,-1.2201,-1.2201,-1.2202,0,-1.223,-1.2226,-1.2227,-1.2228,-1.2229,-1.2228,-1.2227,-1.2229,-1.2217,-1.2219,-1.2221,-1.2221,-1.2221,-1.2222,-1.2221,-1.2217,-1.2208,-1.2206,-1.2209,-1.2213,-1.2217,-1.2216,-1.2173,-1.2205,-1.2205,-1.2204,-1.2204,-1.2204,-1.2252,-1.2257,-1.2254,-1.2256,-1.2254,-1.2254,-1.2257,-1.2252,-1.2254,-1.2254,-1.2247,-1.2251,-1.2247,-1.2245,-1.2243,-1.2245,-1.2239,-1.2242,-1.2244,-1.2245,-1.2248,-1.2216,-1.2245,-1.2245,-1.2245,-1.2244,-1.2244,0,-1.2281,-1.2279,-1.2281,-1.228,-1.2282,-1.2274,-1.2273,-1.2275,-1.2278,-1.2276,-1.2277,-1.228,-1.2282,-1.2275,-1.2276,-1.228,-1.2276,-1.228,-1.228,-1.228,-1.2252,-1.2251,-1.2284,-1.2284,-1.2284,-1.2284,-1.2284,-1.2284,-1.2296,-1.2304,-1.23,-1.2307,-1.2305,-1.2309,-1.2309,-1.2309,-1.2307,-1.2312,-1.2313,-1.231,-1.2306,-1.2307,-1.2308,-1.2306,-1.2308,-1.2314,-1.2311,-1.2285,-1.2282,-1.2278,-1.2276,-1.2314,-1.2314,-1.2338,-1.2339,-1.2339]}]]